Home > Weather > Al Khor > Past weeks

Flag for Qatar Past Weather in Al Khor, Qatar — Yesterday and Last 2 Weeks

Now
102 °F

Sunny.


Feels Like: 104 °F
Forecast: 85 / 106 °F
Wind: 8 mph from North

Location: Doha International Airport

Current Time: Jun 28, 2016 at 6:06:43 PM

Latest Report: Jun 28, 2016 at 5:00 PM


Visibility: 10 mi

Pressure: 29.45 "Hg

Humidity: 27%

Dew Point: 63 °F

Location of Al KhorLocation

Past Weather in Al Khor — Graph

°F

Al Khor Temperature Yesterday

Maximum temperature yesterday: 117 °F (at 3:00 PM)
Minimum temperature yesterday: 88 °F (at 3:00 AM)
Average temperature yesterday: 104 °F

High & Low Weather Summary for the Past Weeks

 TemperatureHumidityPressure
High117 °F (Jun 27, 3:00 PM)63% (Jun 23, 8:00 PM)29.65 "Hg (Jun 23, 8:00 PM)
Low84 °F (Jun 16, 5:00 AM)1% (Jun 14, 12:00 PM)29.39 "Hg (Jun 27, 4:00 PM)
Average98 °F24%29.52 "Hg
* Reported Jun 13 5:00 PM — Jun 28 5:00 PM, Al Khor, Weather by CustomWeather, © 2016

Note: Actual official high and low records may vary slightly from our data, if they occured in-between our weather recording intervals... More about our weather records

Advertising

Al Khor Weather History for the Previous 24 Hours

Scroll right to see more
 ConditionsComfort  
Time TempWeatherWind HumidityBarometerVisibility
5:00 PM
Tue, Jun 28
102 °FSunny.8 mph27%29.45 "Hg10 mi
4:00 PM104 °FSunny.14 mph24%29.45 "Hg10 mi
3:00 PM106 °FSunny.16 mph22%29.45 "Hg10 mi
2:00 PM106 °FClear.12 mph25%29.45 "Hg6 mi
1:00 PM109 °FPassing clouds.12 mph18%29.45 "HgN/A
12:00 PM109 °FPassing clouds.10 mph14%29.47 "HgN/A
11:00 AM109 °FPassing clouds.10 mph14%29.47 "HgN/A
10:00 AM108 °FPassing clouds.12 mph17%29.47 "HgN/A
9:00 AM106 °FSunny.12 mph18%29.47 "Hg10 mi
8:00 AM104 °FPassing clouds.10 mph17%29.47 "HgN/A
7:00 AM100 °FPassing clouds.12 mph25%29.45 "HgN/A
6:00 AM99 °FPassing clouds.8 mph22%29.45 "HgN/A
5:00 AM100 °FPassing clouds.7 mph16%29.42 "HgN/A
3:00 AM97 °FClear.5 mph18%29.42 "Hg10 mi
2:00 AM102 °FClear.2 mph13%29.39 "Hg10 mi
1:00 AM99 °FPassing clouds.7 mph24%29.39 "HgN/A
12:00 AM99 °FPassing clouds.3 mph25%29.42 "HgN/A
10:00 PM
Mon, Jun 27
99 °FPassing clouds.5 mph17%29.45 "HgN/A
9:00 PM104 °FClear.9 mph12%29.45 "Hg10 mi
8:00 PM106 °FClear.8 mph8%29.42 "Hg10 mi
7:00 PM104 °FClear.7 mph17%29.42 "Hg10 mi
6:00 PM106 °FSunny.12 mph23%29.42 "Hg10 mi
Weather by CustomWeather, © 2016

See weather overviewHow to use our weather pages